Location: Newark
(17.9939°S, 31.0481°E)
Time: 13:08:25
(UTC+00:00)

Courier 1B - Pass Details

Date: 17 November 2019
Orbit: 963 x 1209 km, 28.3° (Epoch: 05 December)

Event Time Altitude Azimuth Distance (km) Brightness Sun altitude
Rises 17:40:12 0° 259° (W) 3,999 12.0 -20.3°
Reaches altitude 10° 17:43:11 10° 251° (WSW) 3,071 11.2 -20.9°
Maximum altitude 17:50:16 39° 184° (S) 1,716 9.0 -22.4°
Enters shadow 17:56:49 13° 120° (ESE) 2,934 9.7 -23.7°
